| time (UTC) | temp F | wind direction | speed MPH | gust MPH | rain 1hr in | rain 24hr in | rain mn in | humidity % | barometer mb |
| 20260505010016 | 65 | 109 | 1.0 | 0.0 | 0.00 | 0.00 | 0.00 | 34 | 995.3 |
| 20260505004522 | 66 | 80 | 3.0 | 0.0 | 0.00 | 0.00 | 0.00 | 33 | 994.5 |
| 20260505003014 | 68 | 99 | 2.0 | 0.0 | 0.00 | 0.00 | 0.00 | 33 | 994.1 |
| 20260505001514 | 70 | 101 | 1.0 | 0.0 | 0.00 | 0.00 | 0.00 | 35 | 993.7 |
| 20260505000014 | 72 | 118 | 1.0 | 0.0 | 0.00 | 0.00 | 0.00 | 36 | 993.6 |
| 20260504234512 | 73 | 166 | 2.0 | 0.0 | 0.00 | 0.00 | 0.00 | 35 | 993.3 |
| 20260504233012 | 75 | 115 | 2.0 | 0.0 | 0.00 | 0.00 | 0.00 | 34 | 993.1 |
| 20260504231511 | 76 | 179 | 2.0 | 0.0 | 0.00 | 0.00 | 0.00 | 35 | 992.8 |
| 20260504230011 | 77 | 109 | 2.0 | 0.0 | 0.00 | 0.00 | 0.00 | 35 | 992.6 |
| 20260504224511 | 77 | 126 | 4.0 | 0.0 | 0.00 | 0.00 | 0.00 | 34 | 992.5 |
| 20260504223010 | 78 | 75 | 3.0 | 0.0 | 0.00 | 0.00 | 0.00 | 34 | 992.5 |
| 20260504221509 | 77 | 67 | 4.0 | 0.0 | 0.00 | 0.00 | 0.00 | 32 | 992.3 |
| 20260504220009 | 77 | 63 | 3.0 | 0.0 | 0.00 | 0.00 | 0.00 | 32 | 992.1 |
| 20260504214507 | 78 | 57 | 5.0 | 0.0 | 0.00 | 0.00 | 0.00 | 30 | 992.1 |
| 20260504213007 | 78 | 72 | 4.0 | 0.0 | 0.00 | 0.00 | 0.00 | 32 | 992.1 |
| 20260504211506 | 77 | 73 | 5.0 | 0.0 | 0.00 | 0.00 | 0.00 | 30 | 992.2 |
| 20260504210007 | 77 | 71 | 4.0 | 0.0 | 0.00 | 0.00 | 0.00 | 32 | 992.3 |
| 20260504204512 | 78 | 128 | 4.0 | 0.0 | 0.00 | 0.00 | 0.00 | 32 | 992.4 |
| 20260504203003 | 79 | 82 | 6.0 | 0.0 | 0.00 | 0.00 | 0.00 | 32 | 992.8 |
| 20260504201502 | 78 | 64 | 6.0 | 0.0 | 0.00 | 0.00 | 0.00 | 32 | 992.7 |
| 20260504200111 | 78 | 47 | 5.0 | 0.0 | 0.00 | 0.00 | 0.00 | 35 | 993.0 |
| 20260504194557 | 77 | 84 | 7.0 | 0.0 | 0.00 | 0.00 | 0.00 | 34 | 993.2 |
| 20260504193055 | 78 | 43 | 6.0 | 0.0 | 0.00 | 0.00 | 0.00 | 33 | 993.4 |
| 20260504191554 | 77 | 68 | 7.0 | 0.0 | 0.00 | 0.00 | 0.00 | 34 | 993.6 |
| 20260504190053 | 77 | 71 | 8.0 | 0.0 | 0.00 | 0.00 | 0.00 | 33 | 993.7 |
| 20260504184557 | 77 | 87 | 6.0 | 0.0 | 0.00 | 0.00 | 0.00 | 32 | 993.8 |
| 20260504183048 | 77 | 74 | 6.0 | 0.0 | 0.00 | 0.00 | 0.00 | 33 | 994.0 |
| 20260504181552 | 76 | 56 | 7.0 | 0.0 | 0.00 | 0.00 | 0.00 | 32 | 994.1 |
| 20260504180047 | 76 | 62 | 6.0 | 0.0 | 0.00 | 0.00 | 0.00 | 33 | 994.0 |
| 20260504174548 | 76 | 82 | 6.0 | 0.0 | 0.00 | 0.00 | 0.00 | 31 | 994.0 |
| 20260504173045 | 76 | 98 | 5.0 | 0.0 | 0.00 | 0.00 | 0.00 | 32 | 994.0 |
| 20260504171545 | 76 | 56 | 5.0 | 0.0 | 0.00 | 0.00 | 0.00 | 31 | 994.1 |
| 20260504081536 | 49 | 62 | 0.0 | 0.0 | 0.00 | 0.00 | 0.00 | 70 | 999.5 |
| 20260504044551 | 55 | 62 | 0.0 | 0.0 | 0.00 | 0.00 | 0.00 | 62 | 1001.1 |
| 20260504043057 | 55 | 62 | 0.0 | 0.0 | 0.00 | 0.00 | 0.00 | 61 | 1001.3 |
| 20260504041546 | 55 | 62 | 0.0 | 0.0 | 0.00 | 0.00 | 0.00 | 61 | 1001.3 |
| 20260504040043 | 56 | 62 | 0.0 | 0.0 | 0.00 | 0.00 | 0.00 | 57 | 1001.4 |
| 20260504034542 | 57 | 62 | 0.0 | 0.0 | 0.00 | 0.00 | 0.00 | 55 | 1001.4 |
| 20260504033041 | 58 | 62 | 0.0 | 0.0 | 0.00 | 0.00 | 0.00 | 55 | 1001.5 |
| 20260504031541 | 58 | 62 | 0.0 | 0.0 | 0.00 | 0.00 | 0.00 | 53 | 1001.5 |
| 20260504030040 | 58 | 62 | 0.0 | 0.0 | 0.00 | 0.00 | 0.00 | 53 | 1001.4 |
| 20260504024543 | 58 | 62 | 0.0 | 0.0 | 0.00 | 0.00 | 0.00 | 55 | 1001.3 |
| 20260504023040 | 58 | 62 | 0.0 | 0.0 | 0.00 | 0.00 | 0.00 | 55 | 1001.3 |
| 20260504021539 | 59 | 62 | 0.0 | 0.0 | 0.00 | 0.00 | 0.00 | 58 | 1001.3 |
| 20260504020104 | 61 | 62 | 0.0 | 0.0 | 0.00 | 0.00 | 0.00 | 54 | 1001.0 |
| 20260504014554 | 61 | 62 | 0.0 | 0.0 | 0.00 | 0.00 | 0.00 | 50 | 1000.8 |
| 20260504013045 | 63 | 62 | 0.0 | 0.0 | 0.00 | 0.00 | 0.00 | 51 | 1000.7 |
| 20260504011537 | 64 | 62 | 0.0 | 0.0 | 0.00 | 0.00 | 0.00 | 45 | 1000.6 |